Weather Roundup
Issued by NWS

Home | Current Version | Previous Version | Text Only | Print | Product List | Glossary On
Versions: 1 2 3 4 5 6 7 8 9 10 11 12 13 14 15 16 17 18 19 20 21 22 23 24 25 26 27 28 29 30 31 32 33 34 35 36 37 38 39 40 41 42 43 44 45 46 47 48 49 50
000
NZUS93 KARX 290659
HRRWXR

CURRENT HOURLY OBSERVATIONS ACROSS
MUCH OF THE UPPER MISSISSIPPI VALLEY
NATIONAL WEATHER SERVICE LA CROSSE WI
200 AM CDT FRI MAY 29 2015


...SOUTHEAST MINNESOTA...


CITY           SKY/WX    TMP DP  RH WIND       PRES   REMARKS
ROCHESTER      CLOUDY    65  57  75 S8        29.96F
ROCHESTER/MAYO CLOUDY    66  57  73 E5        29.95F
WINONA         CLOUDY    68  59  73 CALM      29.96S
AUSTIN         LGT RAIN  64  59  82 S5        29.94F
ALBERT LEA     RAIN      68  61  77 S7        29.93S
DODGE CENTER   CLOUDY    66  59  77 S7        29.95S
PRESTON        LGT RAIN  64  57  78 S7        29.97F
OWATONNA       CLOUDY    68  59  73 SE6       29.92F
FARIBAULT      RAIN      66  63  88 SW5       29.93S
$$

...ELSEWHERE IN MINNESOTA...


CITY           SKY/WX    TMP DP  RH WIND       PRES   REMARKS
MINNEAPOLIS    LGT RAIN  69  61  75 S12       29.91S
INTNL FALLS    CLOUDY    59  57  93 VRB3      29.84S
DULUTH         CLOUDY    48  44  86 SE3       29.88F
RED WING       TSTM      66  59  77 SE9       29.93S
REDWOOD FALLS  MOCLDY    65  61  87 S12       29.85F
MANKATO        CLOUDY    68  61  77 S8        29.90F
WORTHINGTON    MOCLDY    63  57  82 S17G32    29.92R THUNDER
FAIRMONT       CLOUDY    66  59  77 S10       29.90F
$$

...SOUTHWEST WISCONSIN...


CITY           SKY/WX    TMP DP  RH WIND       PRES   REMARKS
LA CROSSE      LGT RAIN  67  60  78 SE5       29.97S
PRAIRIE DU CHI LGT RAIN  65  58  75 CALM      30.00S
BOSCOBEL       LGT RAIN  63  60  90 CALM      30.01R
LONE ROCK      NOT AVBL
PLATTEVILLE    CLOUDY    65  57  75 SW5       30.03R
FORT MC COY    CLOUDY    62  58  86 CALM      30.00S
VIROQUA        CLOUDY    66  54  63 SE7       30.01S
WIS DELLS      CLOUDY    67  55  65 SE7       30.02F
$$

...ELSEWHERE IN WISCONSIN...


CITY           SKY/WX    TMP DP  RH WIND       PRES   REMARKS
MILWAUKEE      MOCLDY    63  53  70 SE8       30.06F
MADISON        CLOUDY    69  54  58 S8        30.02F
GREEN BAY      CLOUDY    65  55  70 S7        30.04F
EAU CLAIRE     LGT RAIN  65  59  81 S7        29.97F
BLACK RVR FLS  RAIN      62  60  94 CALM      29.99S
MEDFORD        CLOUDY    62  55  76 SE6       30.01F
WAUSAU         CLOUDY    65  55  70 S7        30.01F
WIS RAPIDS     CLOUDY    67  54  63 S3        30.02F
MARSHFIELD     CLOUDY    65  55  70 S8        30.01S
RICE LAKE      LGT RAIN  65  56  70 S7        29.98R
$$

...NORTHEAST IOWA...


CITY           SKY/WX    TMP DP  RH WIND       PRES   REMARKS
DECORAH        CLOUDY    64  59  82 S6G13     29.98S
MASON CITY     CLOUDY    66  61  84 S9        29.95F
CHARLES CITY   CLOUDY    66  64  94 S12       29.97S
OELWEIN        CLOUDY    64  63  94 S9        29.99F
$$

...ELSEWHERE IN IOWA...


CITY           SKY/WX    TMP DP  RH WIND       PRES   REMARKS
DES MOINES     PTCLDY    65  62  90 S7        29.95F
IOWA CITY      LGT RAIN  66  63  90 SE5       30.01S
FORT DODGE     CLOUDY    66  61  82 S12       29.94S
$$

...NORTHERN ILLINOIS...


CITY           SKY/WX    TMP DP  RH WIND       PRES   REMARKS
CHICAGO-OHARE  MOCLDY    64  57  78 S9        30.04F
CHICAGO-MIDWAY CLOUDY    73  58  59 S7        30.04F
MOLINE         CLOUDY    67  60  78 CALM      30.00F
ROCKFORD       CLOUDY    66  56  70 S6        30.04S
PEORIA         CLOUDY    72  64  76 S7        30.03S
$$

NOTE: "FAIR" INDICATES FEW OR NO CLOUDS BELOW 12,000 FEET WITH NO
SIGNIFICANT WEATHER AND/OR OBSTRUCTIONS TO VISIBILITY. WIND
SPEEDS ARE IN MILES-PER-HOUR.



USA.gov is the U.S. government's official web portal to all federal, state and local government web resources and services.